This is the latest recevied weather packets stored in our database for station/object SA3PJN-WX. If no packets are shown the sender has not sent any weather packets the latest 10 day(s).
| Time | Temp. | Humidity | Pressure | Rain* | Wind** | Luminosity | Snow |
|---|---|---|---|---|---|---|---|
| 1777797400 | 4.44° C | 57% | 966.3 hPa | - | - | - | - |
| 1777797070 | 4.44° C | 55% | 966.3 hPa | - | - | - | - |
| 1777796770 | 5° C | 54% | 966.4 hPa | - | - | - | - |
| 1777796440 | 5.56° C | 50% | 966.5 hPa | - | - | - | - |
| 1777796110 | 6.11° C | 54% | 966.5 hPa | - | - | - | - |
| 1777795810 | 5.56° C | 55% | 966.5 hPa | - | - | - | - |
| 1777795480 | 5.56° C | 58% | 966.6 hPa | - | - | - | - |
| 1777795150 | 4.44° C | 63% | 966.6 hPa | - | - | - | - |
| 1777794850 | 3.33° C | 61% | 966.4 hPa | - | - | - | - |
| 1777794550 | 3.89° C | 62% | 966.5 hPa | - | - | - | - |
| 1777794220 | 3.33° C | 62% | 966.5 hPa | - | - | - | - |
| 1777793890 | 3.33° C | 62% | 966.6 hPa | - | - | - | - |
| 1777793590 | 3.33° C | 65% | 967 hPa | - | - | - | - |
| 1777793290 | 3.33° C | 66% | 966.6 hPa | - | - | - | - |
| 1777792960 | 3.33° C | 65% | 967 hPa | - | - | - | - |
| 1777792660 | 3.33° C | 62% | 967 hPa | - | - | - | - |
| 1777792330 | 3.89° C | 64% | 966.6 hPa | - | - | - | - |
| 1777792030 | 4.44° C | 60% | 966.6 hPa | - | - | - | - |
| 1777791730 | 6.11° C | 57% | 966.6 hPa | - | - | - | - |
| 1777791400 | 7.78° C | 57% | 967 hPa | - | - | - | - |
| 1777791070 | 7.22° C | 57% | 967 hPa | - | - | - | - |
| 1777790770 | 7.22° C | 58% | 967 hPa | - | - | - | - |
| 1777790470 | 6.67° C | 58% | 967 hPa | - | - | - | - |
| 1777790169 | 7.22° C | 57% | 966.5 hPa | - | - | - | - |
| 1777789870 | 6.67° C | 58% | 966.6 hPa | - | - | - | - |
* Rain since midnight (hover to see other rain measurements)
** Current wind speed in m/s (hover to see current wind gust speed)